N7DTY Weather Reports


time (UTC)temp
C
wind
direction
speed
KPH
gust
KPH
rain 1hr
cm
rain 24hr
cm
rain mn
cm
humidity
%
barometer
mb
20260901143044 13 198 0.0 3.2 0.00 0.00 0.00 94 1008.7
20260901141552 12 198 0.0 6.4 0.00 0.00 0.00 94 1008.7
20260901140040 12 239 0.0 3.2 0.00 0.00 0.00 94 1008.7
20260901134535 12 240 0.0 3.2 0.00 0.00 0.00 94 1008.3
20260901133039 12 242 0.0 0.0 0.00 0.00 0.00 94 1008.3
20260901131534 12 242 0.0 3.2 0.00 0.00 0.00 94 1008.1
20260901130032 11 294 0.0 1.6 0.00 0.00 0.00 93 1008.2
20260901124534 11 294 0.0 0.0 0.00 0.00 0.00 93 1008.2
20260901123031 11 294 0.0 0.0 0.00 0.00 0.00 93 1008.2
20260901121535 12 294 0.0 0.0 0.00 0.00 0.00 93 1008.2
20260901120041 12 294 0.0 0.0 0.00 0.00 0.00 93 1008.2
20260901114528 12 294 0.0 0.0 0.00 0.00 0.00 94 1008.3
20260901113029 12 294 0.0 0.0 0.00 0.00 0.00 93 1008.4
20260901111527 12 294 0.0 0.0 0.00 0.00 0.00 93 1008.3
20260901110033 12 294 0.0 0.0 0.00 0.00 0.00 93 1008.5
20260901104531 12 294 0.0 0.0 0.00 0.00 0.00 93 1008.6
20260901103025 12 294 0.0 0.0 0.00 0.00 0.00 93 1008.5
20260901101525 12 294 0.0 0.0 0.00 0.00 0.00 93 1008.5
20260901100023 12 294 0.0 0.0 0.00 0.00 0.00 93 1008.5
20260901094522 12 294 0.0 0.0 0.00 0.00 0.00 92 1008.5
20260901093021 12 294 0.0 0.0 0.00 0.00 0.00 93 1008.4
20260901091523 12 294 0.0 0.0 0.00 0.00 0.00 92 1008.3
20260901090020 12 294 0.0 0.0 0.00 0.00 0.00 92 1008.4
20260901084519 12 294 0.0 0.0 0.00 0.00 0.00 92 1008.4
20260901083023 12 294 0.0 0.0 0.00 0.00 0.00 92 1008.5
20260901081518 12 294 0.0 0.0 0.00 0.00 0.00 92 1008.4
20260901080016 13 294 0.0 0.0 0.00 0.00 0.00 92 1008.2
20260901074514 13 294 0.0 0.0 0.00 0.00 0.00 92 1008.1
20260901073011 13 294 0.0 0.0 0.00 0.00 0.00 92 1008.2
20260901071510 13 294 0.0 0.0 0.00 0.00 0.00 92 1008.3
20260901070017 13 294 0.0 0.0 0.00 0.00 0.00 92 1008.3
20260901064507 13 294 0.0 0.0 0.00 0.00 0.00 92 1008.5
20260901063006 13 294 0.0 0.0 0.00 0.00 0.00 91 1008.5
20260901061508 13 294 0.0 0.0 0.00 0.00 0.00 91 1008.5
20260901060006 13 294 0.0 0.0 0.00 0.00 0.00 90 1008.5
20260901054506 13 294 0.0 0.0 0.00 0.00 0.00 90 1008.5
20260901053005 14 294 0.0 0.0 0.00 0.00 0.00 89 1008.5
20260901051505 14 294 0.0 0.0 0.00 0.00 0.00 88 1008.4
20260901050004 14 294 0.0 0.0 0.00 0.00 0.00 87 1008.4
20260901044505 15 294 0.0 0.0 0.00 0.00 0.00 86 1008.4
20260901043003 15 294 0.0 0.0 0.00 0.00 0.00 86 1008.4
20260901041502 15 294 0.0 0.0 0.00 0.00 0.00 84 1008.4
20260901040002 16 294 0.0 0.0 0.00 0.00 0.00 83 1008.3
20260901034501 16 294 0.0 0.0 0.00 0.00 0.00 81 1008.3
20260901033002 16 294 0.0 0.0 0.00 0.00 0.00 79 1008.2
20260901031600 17 294 0.0 0.0 0.00 0.00 0.00 78 1008.2
20260901030100 17 294 0.0 0.0 0.00 0.00 0.00 76 1008.3
20260901024559 18 294 0.0 0.0 0.00 0.00 0.00 74 1008.2
20260901023057 18 294 0.0 0.0 0.00 0.00 0.00 73 1008.3
20260901021557 18 294 0.0 1.6 0.00 0.00 0.00 71 1008.4
20260901020058 19 294 0.0 0.0 0.00 0.00 0.00 69 1008.5
20260901014554 19 294 0.0 4.8 0.00 0.00 0.00 66 1008.6
20260901013100 20 309 0.0 3.2 0.00 0.00 0.00 66 1008.6
20260901011553 20 339 0.0 4.8 0.00 0.00 0.00 64 1008.7
20260901010056 20 341 0.0 8.0 0.00 0.00 0.00 63 1008.7
20260901004554 20 348 1.6 9.7 0.00 0.00 0.00 63 1008.7
20260901003051 21 244 1.6 9.7 0.00 0.00 0.00 61 1008.9
20260901001549 21 228 0.0 6.4 0.00 0.00 0.00 59 1009.0
20260901000057 22 11 1.6 11.3 0.00 0.00 0.00 59 1009.1
20260831234547 22 37 3.2 12.9 0.00 0.00 0.00 59 1009.3
20260831233044 22 89 1.6 12.9 0.00 0.00 0.00 61 1009.6
20260831231547 22 265 1.6 8.0 0.00 0.00 0.00 60 1009.7
20260831230043 23 27 1.6 9.7 0.00 0.00 0.00 59 1009.7
20260831224540 22 10 3.2 12.9 0.00 0.00 0.00 59 1009.8
20260831223039 22 20 4.8 9.7 0.00 0.00 0.00 62 1010.1
20260831221537 22 331 1.6 11.3 0.00 0.00 0.00 64 1010.2
20260831220036 23 27 3.2 12.9 0.00 0.00 0.00 60 1010.3
20260831214533 22 41 3.2 11.3 0.00 0.00 0.00 63 1010.6
20260831213034 21 44 3.2 14.5 0.00 0.00 0.00 69 1010.7
20260831211533 22 103 1.6 8.0 0.00 0.00 0.00 66 1010.9
20260831210130 22 271 1.6 9.7 0.00 0.00 0.00 62 1011.1
20260831204534 23 123 1.6 11.3 0.00 0.00 0.00 63 1011.1
20260831203028 22 55 3.2 9.7 0.00 0.00 0.00 63 1011.3
20260831201524 22 85 3.2 12.9 0.00 0.00 0.00 62 1011.5
20260831200024 23 142 3.2 9.7 0.00 0.00 0.00 58 1011.8
20260831194519 23 19 0.0 9.7 0.00 0.00 0.00 55 1011.9
20260831193023 22 5 4.8 14.5 0.00 0.00 0.00 58 1012.2
20260831191515 22 13 3.2 6.4 0.00 0.00 0.00 55 1012.3
20260831190011 21 18 6.4 14.5 0.00 0.00 0.00 59 1012.7
20260831184510 21 348 1.6 16.1 0.00 0.00 0.00 62 1012.8
20260831183006 21 46 3.2 9.7 0.00 0.00 0.00 63 1013.0
20260831181503 20 5 8.0 14.5 0.00 0.00 0.00 63 1013.2
20260831180100 19 349 9.7 16.1 0.00 0.00 0.00 64 1013.3
20260831174556 18 351 4.8 19.3 0.00 0.00 0.00 68 1013.5
20260831173053 18 355 9.7 17.7 0.00 0.00 0.00 69 1013.6
20260831171549 17 360 1.6 19.3 0.00 0.00 0.00 71 1013.6
20260831170045 17 13 3.2 12.9 0.00 0.00 0.00 73 1013.7
20260831164541 16 92 3.2 8.0 0.00 0.00 0.00 77 1013.7
20260831163038 15 329 3.2 16.1 0.00 0.00 0.00 79 1013.7
20260831161535 14 17 1.6 8.0 0.00 0.00 0.00 82 1013.7
20260831160035 13 325 3.2 9.7 0.00 0.00 0.00 84 1014.0
20260831154527 13 342 4.8 8.0 0.00 0.00 0.00 86 1014.2
20260831153022 12 355 3.2 8.0 0.00 0.00 0.00 88 1014.1
20260831151522 12 61 0.0 8.0 0.00 0.00 0.00 88 1014.2
20260831150021 12 347 3.2 6.4 0.00 0.00 0.00 89 1014.0
20260831144520 11 345 3.2 8.0 0.00 0.00 0.00 91 1014.0